[ hide orbit diagram ]
For accurate long-term ephemerides, please instead use our Horizons system.This orbit viewer was implemented using two-body methods, and hence should not be used for determining accurate long-term trajectories (over several years or decades) or planetary encounter circumstances.
Orbital Elements at Epoch 2459000.5 (2020-May-31.0) TDB
Reference: JPL 35 (heliocentric ecliptic J2000)
Element | Value | Uncertainty (1-sigma) | Units |
e | .04000840112808056 | 3.5877e-08 | |
a | 3.263762680977237 | 1.5068e-08 | au |
q | 3.13318475444984 | 1.1532e-07 | au |
i | 13.323576639106 | 3.8049e-06 | deg |
node | 125.6811445246028 | 1.7063e-05 | deg |
peri | 26.74700724607625 | 5.2141e-05 | deg |
M | 104.5728697999349 | 4.8738e-05 | deg |
tp | 2458374.905659748157 (2018-Sep-13.40565975) | 0.0002923 | TDB |
period | 2153.655751453842 5.90 | 1.4914e-05 4.083e-08 | d yr |
n | .167157634063373 | 1.1576e-09 | deg/d |
Q | 3.394340607504633 | 1.5671e-08 | au |
|
| | Orbit Determination Parameters
Additional Information
|
[ show covariance matrix ]
Physical Parameter Table
Parameter |
Symbol |
Value |
Units |
Sigma |
Reference |
Notes |
absolute magnitude |
H |
10.5 |
|
n/a |
MPO347518 |
|
diameter |
diameter |
24.711 |
km |
0.288 |
urn:nasa:pds:neowise_diameters_albedos::2.0[mainbelt] (http://adsabs.harvard.edu/abs/2014ApJ...791..121M) |
|
rotation period |
rot_per |
9.945 |
h |
n/a |
LCDB (Rev. 2020-October); Warner et al., 2009 |
Published Reference List: [Pilcher, F. (2013) Minor Planet Bull. 40, 158-160.] |
geometric albedo |
albedo |
0.200 |
|
0.023 |
urn:nasa:pds:neowise_diameters_albedos::2.0[mainbelt] (http://adsabs.harvard.edu/abs/2014ApJ...791..121M) |
|
|
745 Mauritia (A913 EH) Discovered 1913-Mar-01 by Kaiser, F. at Heidelberg |
Reference: DISCOVERY.DB | Last Updated: 2003-08-29 |
|
[ show close-approach data ]
|